Погода в Любашевке

Погода в Любашевке : погода сейчас, прогноз погоды и архив. Всё, что Вы хотите узнать о погоде в Любашевке!

Хотите узнать прогноз погоды в Любашевке? Тогда Вам сюда: Погода в Любашевке

Поиск расширенной информации на нашем сайте:

Другие новости

Новости СМИ2

Главная страница сайта

Новости сайта

03.07.2017

Напоминаем, что на нашем специализированном сайте Метеоцентр.Азия вы можете получить высокодетализированные автоматические прогнозы погоды по пунктам России, СНГ и мира в авиационном формате (включающие направление и скорость ветра, видимость, явления погоды, количество и форму облачности, нижнюю и верхнюю границу облачности).


Погода в Любашевке - сегодня

Время (UTC), дата Ветер
(°,м/с) 
Видим.   Явления Облачность Т
(°С)
Тd
(°С)
f(%) Тe
(°С)
Pmin
(гПа)
dP
(гПа)
Po
(мм)
O2
(г/м3)
Тmin Tmax R s Состояние
почвы
03 14.07.18 020 (С) 11000 м    3/1 600 м средняя 
[Sc|Ac cast]
+16.3 +13.9 86 +25  1011.3  0.2  742  279           
06 14.07.18 340 (С) 20000 м    1/0 средняя 
[Ac trans]
+20.8 +14.2 66 +28  1010.8  -0.1  742  275  +15.3         
09 14.07.18 340 (С) 20000 м    1/1 1000 м 
[Cu hum]
+24.6 +12.9 48 +30  1010.3  -0.3  742  272           
12 14.07.18 290 (З) 20000 м    6/5 1000 м верхняя 
[Cu med, cong|Ci fib]
+26.1 +13.2 45 +32  1008.9  -1.2  741  270           
15 14.07.18 270 (З) 20000 м    4/3 600 м верхняя 
[Sc diur, vesp|Ci fib]
+25.7 +12.8 45 +31  1007.7  -1.2  740  270           
18 14.07.18 260 (З) 20000 м    6/4 600 м кучево-дожд., верхняя 
[Cb calv|Ci fib]
+22.9 +13.9 57 +30  1008.2  0.3  741  273    +26.6       
21 14.07.18 270 (З) 20000 м    ясно 
+18 +14.5 80 +27  1008.3  -0.3  740  277           
00 15.07.18 270 (З) 10 км    ясно 
+16.2 +14.4 89 +25  1008.4  740  279           
03 15.07.18 тихо ()   7000 м  дымка  ясно 
+15.6 +14.6 94 +24  1007.9  -0.5  740  279           
06 15.07.18 320 (СЗ) 20000 м    1/0 средняя 
[Ac trans]
+19.5 +16.1 81 +32  1007.6  740  275  +15.4  +3.3       
09 15.07.18 270 (З) 20000 м    9/8 1000 м средняя, верхняя 
[Cu med, cong|Ac trans|Ci fib]
+21.8 +15.8 69 +32  1007.5  740  273           
12 15.07.18 320 (СЗ) 20000 м    9/6 600 м кучево-дожд., средняя, верхняя 
[Cb calv|Ac trans|Ci fib]
+25 +14.2 51 +33  1006.1  -1.1  739  270           
15 15.07.18 270 (З) 20000 м    9/3 600 м кучево-дожд., средняя, верхняя 
[Cb calv|Ac trans|Ci fib]
+24.1 +13.9 53 +31  1005.7  -0.5  739  271           
18 15.07.18 тихо ()   20000 м    10/0 верхняя 
[Ci fib]
+20.2 +14.8 71 +29  1006.3  0.3  739  274    +25.9       
21 15.07.18 270 (З) 10 км    8/0 средняя, верхняя 
[Ac trans|Ci fib]
+17.6 +15.6 88 +29  1006.9  0.4  739  276           
00 16.07.18 280 (З) 6000 м  дымка  ясно 
+15.9 +14.9 94 +26  1006.5  -0.5  739  278           
03 16.07.18 290 (З) 6000 м  дымка  ясно 
+15.1 +14.4 96 +24  1006.4  -0.2  739  279           
06 16.07.18 330 (СЗ) 20000 м    4/3 1000 м средняя 
[Cu hum|Ac trans]
+20 +16.2 79 +31  1006  739  274  +14.8         
09 16.07.18 330 (СЗ) 20000 м    9/9 600 м кучево-дожд., средняя, верхняя 
[Cb calv|Ac trans|Ci fib]
+24 +16 61 +35  1005.2  -0.5  738  270           
12 16.07.18 330 (СЗ) 20000 м    5/5 600 м кучево-дожд. 
[Cb calv]
+25.1 +15.1 54 +34  1004.6  -0.5  738  269           
15 16.07.18 300 (СЗ) 20000 м    9/3 600 м кучево-дожд., верхняя 
[Cb calv|Ci fib]
+24.8 +14 51 +32  1004.3  -0.3  738  270           
18 16.07.18 260 (З) 20000 м    8/3 600 м кучево-дожд., средняя 
[Cb calv|Ac trans]
+21.6 +14.3 63 +30  1005  0.4  738  273    +25.9       
21 16.07.18 260 (З) 20000 м    ясно 
+17.4 +14.1 81 +26  1004.9  -0.4  738  277           
00 17.07.18 280 (З) 8000 м  дымка  ясно 
+15.6 +14.1 91 +25  1004.4  -0.6  737  278           
03 17.07.18 280 (З) 7000 м  дымка  4/0 средняя 
[Ac trans]
+15.4 +14.4 94 +25  1003.9  -0.5  737  278           
Время (UTC), дата Ветер
(°,м/с) 
Видим.   Явления Облачность Т
(°С)
Тd
(°С)
f(%) Тe
(°С)
Pmin
(гПа)
dP
(гПа)
Po
(мм)
O2
(г/м3)
Тmin Tmax R s Состояние
почвы

Для получения пояснительной информации подведите курсор к названию столбца.

ПОГОДА в Любашевке - архив

Всё, что Вы хотите узнать о погоде в Любашевке - удобно и подробно!

Выберите нужную дату (начиная с 1 января 2015* года) и нажмите кнопку "Найти".
Будут отображены архивные сводки погоды по пункту Любашевка, начиная с указанной даты.


Отображать данные в формате CSV (для использования в таблицах Excel)


Внимание! Наш архив погоды предназначен исключительно для личного некоммерческого использования в познавательных целях. Если Вам необходимы официальные справки о состоянии погоды (для производственных, юридических, коммерческих и т.п. целей), обращайтесь в органы Росгидромета.

*Примечание: данная дата относится к архиву по метеостанциям СССР (Россия, СНГ, Балтия).
Архив по метеостанциям Зарубежной Европы и Азии (кроме Китая) хранится 10 дней, по другим регионам земного шара (Китай, Африка, Америка, Австралия, Океания) - 1 день.

Любашевка - район местоположения метеостанции


Название, широта, долгота, высота метеостанции:
Любашевка 47.9°ш. 30.3°д. 183 м над ур. моря [Украина]

Дополнительная информация

В oтличие oт бoльшинства пoгoдных сайтoв мы публикуем пoдрoбную метеoинфoрмацию в детальнoм прoфессиoнальнoм фoрмате.

Характеристики температуры и влажнoсти вoздуха измеряются на высoте 2 м в тени вдали oт зданий и деревьев.
Скoрoсть ветра измеряется на высoте 10 м (на урoвне рoста челoвека скoрoсть ветра ниже в 1.5-2 раза). Если метеoстанция нахoдится в гoрoде или в лесу, тo скoрoсть ветра занижена на 2-4 м/с пo сравнению с oткрытым местoм. Скoрoсть ветра над акватoриями крупных рек и oзёр, а также на вершинах хoлмoв на 2-5 м/с выше, чем в oбычных услoвиях.
Атмoсфернoе давление в разных тoчках местнoсти мoжет значительнo oтличаться oт давления на метеoстанции, в зависимoсти oт услoвий рельефа (при пoдъёме на 10 м давление пoнижается примернo на 1 мм рт.ст.).